EA7RX-4 Weather Reports


time (UTC)temp
C
wind
direction
speed
KPH
gust
KPH
rain 1hr
cm
rain 24hr
cm
rain mn
cm
humidity
%
barometer
mb
20260504000003 12 205 6.4 11.3 0.00 0.28 0.00 63 1011.0
20260503235003 12 201 6.4 11.3 0.00 0.28 0.00 63 1011.2
20260503234003 12 199 3.2 9.7 0.00 0.28 0.00 63 1011.2
20260503233003 13 213 6.4 12.9 0.00 0.28 0.00 60 1011.2
20260503232003 13 210 6.4 12.9 0.00 0.30 0.00 60 1011.3
20260503231003 13 204 6.4 11.3 0.00 0.30 0.00 63 1011.5
20260503230003 13 206 6.4 11.3 0.00 0.30 0.00 61 1011.3
20260503225003 13 207 6.4 12.9 0.00 0.30 0.00 63 1011.3
20260503224003 13 210 8.0 12.9 0.00 0.30 0.00 63 1011.5
20260503223003 13 213 8.0 12.9 0.00 0.30 0.00 62 1011.4
20260503222003 13 210 6.4 12.9 0.00 0.30 0.00 63 1011.8
20260503221003 13 206 4.8 6.4 0.00 0.30 0.00 66 1011.7
20260503220003 13 201 4.8 9.7 0.00 0.30 0.00 66 1011.7
20260503215003 13 208 6.4 9.7 0.00 0.30 0.30 64 1011.6
20260503214003 14 215 8.0 12.9 0.00 0.30 0.30 61 1011.5
20260503213003 14 220 6.4 12.9 0.00 0.30 0.30 60 1011.6
20260503212003 14 227 6.4 12.9 0.00 0.30 0.30 64 1011.3
20260503211003 14 225 4.8 9.7 0.00 0.30 0.30 65 1011.5
20260503210003 14 220 3.2 6.4 0.00 0.30 0.30 64 1011.3
20260503205003 14 231 6.4 11.3 0.00 0.30 0.30 63 1011.3
20260503204003 14 236 4.8 11.3 0.00 0.30 0.30 62 1011.2
20260503203003 14 225 4.8 9.7 0.00 0.30 0.30 63 1010.9
20260503202003 14 249 6.4 11.3 0.00 0.30 0.30 62 1010.9
20260503201003 14 233 6.4 12.9 0.00 0.30 0.30 62 1010.8
20260503200003 15 231 6.4 12.9 0.00 0.30 0.30 61 1010.7
20260503195003 15 233 8.0 16.1 0.00 0.30 0.30 60 1010.5
20260503194003 15 236 11.3 16.1 0.00 0.30 0.30 59 1010.3
20260503193003 15 231 9.7 16.1 0.00 0.30 0.30 59 1010.2
20260503192003 15 224 9.7 16.1 0.00 0.30 0.30 59 1010.5
20260503191003 15 226 11.3 20.9 0.00 0.30 0.30 59 1010.1
20260503190003 15 225 9.7 17.7 0.00 0.30 0.30 59 1010.2
20260503185003 15 220 9.7 17.7 0.00 0.30 0.30 59 1010.0
20260503184003 15 224 9.7 16.1 0.00 0.30 0.30 58 1010.1
20260503183003 16 233 12.9 24.1 0.00 0.30 0.30 56 1010.0
20260503182003 16 238 14.5 24.1 0.00 0.30 0.30 56 1009.8
20260503181003 16 228 14.5 25.7 0.00 0.30 0.30 56 1010.1
20260503180003 16 225 12.9 27.4 0.00 0.30 0.30 56 1010.0
20260503175003 16 233 12.9 27.4 0.00 0.30 0.30 55 1010.0
20260503174003 16 242 14.5 27.4 0.00 0.30 0.30 54 1009.8
20260503173003 16 238 11.3 22.5 0.00 0.30 0.30 56 1009.8
20260503172003 16 241 16.1 24.1 0.00 0.30 0.30 54 1009.7
20260503171003 16 245 14.5 24.1 0.00 0.30 0.30 55 1009.8
20260503151003 18 237 17.7 30.6 0.00 0.30 0.30 53 1009.8
20260503131003 17 224 20.9 37.0 0.00 1.65 0.30 57 1010.7
20260503081003 13 191 11.3 17.7 0.03 1.68 0.30 90 1012.4
20260503072003 11 154 9.7 20.9 0.28 1.68 0.30 91 1012.0
20260503071003 11 167 12.9 22.5 0.25 1.65 0.28 92 1012.1
20260503055003 12 122 12.9 20.9 0.00 1.40 0.03 96 1011.7
20260503054003 11 133 12.9 20.9 0.00 1.40 0.03 96 1011.9
20260503053003 11 132 11.3 20.9 0.00 1.40 0.03 96 1011.9
20260503052003 11 132 12.9 20.9 0.00 1.40 0.03 96 1011.8
20260503051003 11 124 11.3 20.9 0.00 1.40 0.03 95 1011.8
20260503050003 11 130 12.9 17.7 0.00 1.40 0.03 95 1011.7
20260503045003 11 131 11.3 20.9 0.00 1.40 0.03 95 1011.8
20260503044003 11 130 11.3 17.7 0.00 1.40 0.03 95 1012.0
20260503043003 11 132 9.7 20.9 0.00 1.40 0.03 95 1012.0
20260503042003 11 123 11.3 16.1 0.00 1.40 0.03 95 1012.1
20260503041003 11 129 9.7 17.7 0.00 1.40 0.03 95 1012.1
20260503040003 11 133 11.3 20.9 0.00 1.40 0.03 94 1012.2
20260503035003 11 131 11.3 17.7 0.00 1.40 0.03 94 1012.4
20260503034003 11 130 11.3 17.7 0.00 1.40 0.03 93 1012.6
20260503033003 11 133 11.3 17.7 0.00 1.40 0.03 92 1012.8
20260503032003 11 129 11.3 20.9 0.00 1.40 0.03 91 1012.7
20260503031003 12 123 11.3 17.7 0.00 1.40 0.03 90 1012.8
20260503030003 12 130 9.7 17.7 0.00 1.40 0.03 90 1012.7
20260503025003 12 123 11.3 20.9 0.00 1.40 0.03 89 1012.6
20260503024003 12 124 9.7 14.5 0.00 1.40 0.03 89 1012.8
20260503023003 12 135 8.0 16.1 0.00 1.40 0.03 87 1012.8
20260503022003 12 137 9.7 14.5 0.00 1.40 0.03 86 1012.8
20260503021003 12 126 8.0 12.9 0.00 1.40 0.03 85 1012.9
20260503020003 12 132 6.4 12.9 0.00 1.40 0.03 85 1012.9
20260503015003 12 132 8.0 16.1 0.00 1.40 0.03 83 1013.0
20260503014003 12 121 6.4 12.9 0.00 1.40 0.03 83 1013.1
20260503013003 12 124 8.0 14.5 0.00 1.40 0.03 84 1013.0
20260503012003 12 116 6.4 11.3 0.00 1.40 0.03 86 1012.9
20260503011003 12 117 6.4 11.3 0.00 1.40 0.03 86 1013.1
20260503010003 12 113 6.4 9.7 0.00 1.40 0.03 86 1013.3
20260503005003 12 116 6.4 11.3 0.00 1.40 0.03 85 1013.3
20260503004003 12 120 6.4 11.3 0.00 1.40 0.03 86 1013.6
20260503003003 12 119 4.8 9.7 0.00 1.40 0.03 87 1013.3
20260503002003 12 144 3.2 4.8 0.03 1.40 0.03 85 1013.4
20260503001003 12 131 1.6 4.8 0.03 1.40 0.03 84 1013.8